COSMOS 252 DEB *, 18597

Orbit data source: Space-Track

COSMOS 252 DEB *, 18597 is space debris in LEO originally from a launch on Fri, 01 Nov 1968 UTC launched from the Tyuratam Missile And Space Complex (TTMTR). Debris objects in space refer to the collection of defunct objects orbiting the Earth. Examples of debris include non-operational satellites, rocket bodies, and fragments generated from explosions, collisions, or faulty payload assembly.

Loading next visibility...
Identifier
18597, 1968-097EQ
Orbit
LEO
Country
Flag of CISCIS
Related business
Manufacturer
Unknown
Mission
Spacecraft
Bus & Motor
Unknown
Mass
Unknown
Launch date (UTC)
1968-11-01 (57 years ago)
Launch vehicle
Unknown
Launch site
Tyuratam Missile And Space Complex (TTMTR)
Object type
Payload
Rocket body
Debris
Shape & HBR
Unknown shape, 0.1 m
Radar Cross Section
Small (<0.1 m²)

Expand to show TLE details & history
Last TLE update: 18 hours ago

TLE from 18 hours ago
0 COSMOS 252 DEB *
1 18597U 68097EQ  26121.74576930  .00001377  00000-0  19156-2 0  9995
2 18597  62.2546  38.7765 0777619  40.8405 324.8260 12.75658698578182
Epoch: 2026-05-01T17:53Z
TLE epoch observation values (Epoch: 2026-05-01T17:53:54.467Z)
Latitude
-0°
Longitude
-89.37406°
Altitude
885.859 km
Speed
7.634 km/s
True Right ascension
02h 35m 06s
True Declination
0° 00' 00"
Sunlit
Object was in daylight at epoch
Visualization orbit readout
Latitude
Unknown
Longitude
Unknown
Altitude
Unknown
Speed
Unknown
Apparent Right ascension
Unknown
Apparent Declination
Unknown
Sunlit
N/A
Visualization observer readout
Local Sidereal Time
19:13:02
Azimuth
Unknown
Elevation
Unknown
Doppler factor
Unknown
Orbital elements
Apogee altitude
1,959.549 km
Perigee altitude
756.4 km
Semi-major axis
7,736.111 km
Eccentricity
0.07776
Inclination
62.2546°
RAAN
38.7765°
Arg. of periapsis
40.8405°
True anomaly
319.26029°
Mean anomaly
324.826°
Eccentric anomaly
322.08838°
Mean motion
3.18977 °/min
Orbital period
112.86 mins
BSTAR
0.0019156
Loading maneuver chart data...
Computing Atmospheric mass density...
Loading historical data...
Loading historical data...
Loading historical data...
Loading historical data...
Loading historical data...
Loading historical data...
Loading historical data...

Documentation

Showing up to 5 results
|